Weather in Tambovka

Russia / Astrakhan Oblast     47°18′48″N   47°23′13″E
temp.,
°C
wind,
m/s
gust,
m/s
humid.,
%
clouds,
%
prec.,
mm/h
press.,
hPa
HPBL,
m
1 august, sun
sun101:00+25sse44427 0.0 101150
04:00+23sse335325 0.0 101133
07:00+25s34514 0.0 1012139
10:00+31sse23314 0.0 1012867
13:00+35s34254 0.0 10112339
16:00+36sw34245 0.0 10102683
19:00+35wsw222512 0.0 10091012
22:00+30ssw343917 0.0 101145
2 august, mon
mon201:00+28ssw464141 0.0 1011116
04:00+25wsw33455 0.0 101120
07:00+28ssw233861 0.0 101279
10:00+33s122220 0.0 1012592
13:00+37ssw351571 0.0 10122270
16:00+39sw461264 0.0 10103596
19:00+37wsw331572 0.0 1010155
22:00+31s481892 0.0 1011105
3 august, tue
tue301:00+28s332592 0.0 101021
04:00+26s333320 0.0 101117
07:00+28w113511 0.0 101226
10:00+35sse22173 0.0 1012602
13:00+39ssw45110 0.0 10113496
16:00+40sw4591 0.0 10093968
19:00+38w22135 0.0 100932
22:00+31ssw510195 0.0 1010131
4 august, wed
wed401:00+29ssw47230 0.0 101081
04:00+27sw45260 0.0 101062
07:00+28sw34281 0.0 101182
10:00+36ssw44165 0.0 1011583
13:00+40ssw5610100 0.0 10102615
16:00+40ssw35965 0.0 10094064
19:00+34n682584 0.0 1009324
22:00+30wnw333298 0.0 101134
5 august, thu
thu501:00+28nnw4103852 0.0 1012215
04:00+28nnw494789 0.0 1011228
07:00+27n4648100 0.1 1012183
10:00+23nnw5773100 1.3 1014259
13:00+29n444333 0.1 1014974
16:00+33nnw4531100 0.1 10132628
19:00+32nne46270 0.0 10122444
22:00+27n47311 0.0 1013102